This demonstration page uses our WeatherBlox Daily Observations layout. Learn more.

Left ArrowRight Arrow

Hourly Observations for November 17, 2018

Temp ( °F °C ) Dew Point ( °F °C ) Humidity (%) Winds ( mph kmh ) Pressure ( in mb ) Visibility ( mi km ) Precip ( " mm )
12:53 am 00:53 Cloudy 38 3.3 33 0.6 83 83 Calm 30.19 1022 10 16 0.00 0.00
1:53 am 01:53 Cloudy 38 3.3 33 0.6 83 83 WNW 3 6 30.22 1023 9 14 0.00 0.00
2:53 am 02:53 Cloudy 38 3.3 33 0.6 83 83 WNW 5 7 30.23 1024 9 14 0.00 0.00
3:53 am 03:53 Cloudy 38 3.3 33 0.6 83 83 Calm 30.25 1024 9 14 0.00 0.00
4:53 am 04:53 Cloudy 37 2.8 33 0.6 86 86 Calm 30.26 1025 9 14 0.00 0.00
5:53 am 05:53 Cloudy 38 3.3 31 -0.6 76 76 Calm 30.27 1025 10 16 0.00 0.00
6:53 am 06:53 Cloudy 37 2.8 32 0 82 82 Calm 30.29 1026 10 16 0.00 0.00
7:53 am 07:53 Cloudy 38 3.3 32 0 79 79 NE 3 6 30.30 1026 8 13 0.00 0.00
8:53 am 08:53 Cloudy 38 3.3 32 0 79 79 E 3 6 30.30 1026 8 13 0.00 0.00
9:53 am 09:53 Cloudy 40 4.4 33 0.6 77 77 ESE 5 7 30.31 1026 8 13 0.00 0.00
10:53 am 10:53 Cloudy 41 5 33 0.6 73 73 VRB 5 7 30.31 1026 8 13 0.00 0.00
11:53 am 11:53 Cloudy 42 5.6 33 0.6 71 71 Calm 30.30 1026 8 13 0.00 0.00
12:53 pm 12:53 Cloudy 43 6.1 34 1.1 71 71 VRB 3 6 30.27 1025 7 11 0.00 0.00
1:53 pm 13:53 Mostly Cloudy 44 6.7 35 1.7 71 71 Calm 30.26 1025 7 11 0.00 0.00
2:04 pm 14:04 Partly Cloudy 45 7.2 35 1.7 68 68 SSW 6 9 30.24 1024 7 11 0.00 0.00
2:11 pm 14:11 Mostly Cloudy 45 7.2 35 1.7 68 68 VRB 3 6 30.24 1024 7 11 0.00 0.00
2:29 pm 14:29 Partly Cloudy 45 7.2 35 1.7 68 68 ENE 3 6 30.24 1024 7 11 0.00 0.00
2:53 pm 14:53 Mostly Cloudy 45 7.2 35 1.7 68 68 VRB 3 6 30.26 1025 7 11 0.00 0.00
3:00 pm 15:00 Partly Cloudy 46 7.8 35 1.7 66 66 VRB 3 6 30.24 1024 7 11 0.00 0.00
3:53 pm 15:53 Sunny 45 7.2 36 2.2 71 71 E 6 9 30.26 1025 7 11 0.00 0.00
4:53 pm 16:53 Sunny 43 6.1 35 1.7 74 74 E 3 6 30.27 1025 7 11 0.00 0.00
5:53 pm 17:53 Clear 38 3.3 33 0.6 83 83 Calm 30.27 1025 7 11 0.00 0.00
6:53 pm 18:53 Hazy 38 3.3 33 0.6 83 83 Calm 30.27 1025 6 10 0.00 0.00
7:53 pm 19:53 Clear with Mist and Fog 38 3.3 34 1.1 86 86 E 3 6 30.27 1025 6 10 0.00 0.00
8:53 pm 20:53 Clear with Mist and Fog 38 3.3 34 1.1 86 86 E 3 6 30.28 1025 6 10 0.00 0.00
9:53 pm 21:53 Clear with Mist and Fog 37 2.8 34 1.1 89 89 Calm 30.28 1025 6 10 0.00 0.00
10:53 pm 22:53 Clear with Mist and Fog 38 3.3 34 1.1 86 86 E 3 6 30.27 1025 6 10 0.00 0.00
11:53 pm 23:53 Clear 36 2.2 33 0.6 89 89 Calm 30.27 1025 7 11 0.00 0.00

Powered by AerisWeather